Flag for Germany Weather past 2 weeks in Bornheim (Rheinland), North Rhine-Westphalia, Germany

Now
79 °F

Overcast.


Feels Like: 80 °F
Forecast: 53 / 82 °F
Wind: 8 mph from South

Location: Bonn-Hangelar

Current Time: Aug 4, 2015 at 6:16:03 AM

Latest Report: Aug 4, 2015 at 5:00 AM


Visibility: 31 mi

Pressure: 29.78 "Hg

Humidity: 46%

Dew point: 56 °F

Location of Bornheim (Rheinland)Location

Historic Weather in Bornheim (Rheinland) — Graph

°F

Bornheim (Rheinland) temperature yesterday

Maximum temperature yesterday: 89 °F (at 5:00 PM)
Minimum temperature yesterday: 63 °F (at 1:00 AM)
Average temperature yesterday: 78 °F

Past Weeks' High & Low Weather Summary

 TemperatureHumidityPressure
High89 °F (Aug 3, 5:00 PM)100% (Jul 25, 6:00 PM)30.16 "Hg (Jul 25, 6:00 PM)
Low46 °F (Jul 31, 5:00 AM)26% (Aug 3, 5:00 PM)29.50 "Hg (Jul 25, 7:00 AM)
Average63 °F74%29.91 "Hg
* Reported Jul 20 5:00 AM — Aug 4 5:00 AM, Bornheim (Rheinland), Weather by CustomWeather, © 2015

Note: Actual official high and low records may vary slightly from our data, if they occured in-between our weather recording intervals... More about our weather records

Advertising

Bornheim (Rheinland) weather history for previous 24 hours

 ConditionsComfort  
Time TempWeatherWind HumidityBarometerVisibility
5:00 AM
Tue, Aug 4
79 °FOvercast.8 mph46%29.78 "Hg31 mi
4:00 AM78 °FOvercast.8 mph50%29.80 "Hg28 mi
3:00 AM69 °FClear.5 mph62%29.83 "Hg25 mi
2:00 AM69 °FPassing clouds.3 mph66%29.87 "Hg22 mi
1:00 AM70 °FPassing clouds.3 mph64%29.88 "Hg22 mi
11:00 PM
Mon, Aug 3
75 °FOvercast.2 mph53%29.90 "Hg22 mi
10:00 PM74 °FOvercast.2 mph55%29.90 "Hg28 mi
9:00 PM78 °FOvercast.1 mph48%29.90 "Hg19 mi
8:00 PM84 °FPartly sunny.2 mph35%29.89 "Hg40 mi
7:00 PM88 °FOvercast.3 mph31%29.88 "Hg22 mi
6:00 PM88 °FOvercast.6 mph28%29.90 "Hg10 mi
5:00 PM89 °FPartly sunny.6 mph26%29.91 "Hg7 mi
4:00 PM88 °FSunny.3 mph29%29.91 "Hg12 mi
3:00 PM88 °FPartly sunny.6 mph30%29.93 "Hg9 mi
2:00 PM87 °FScattered clouds.6 mph31%29.94 "Hg10 mi
1:00 PM86 °FScattered clouds.8 mph32%29.95 "Hg6 mi
12:00 PM84 °FSunny.7 mph37%29.95 "Hg6 mi
11:00 AM82 °FSunny.8 mph43%29.96 "Hg6 mi
10:00 AM80 °FSunny.8 mph44%29.95 "Hg6 mi
9:00 AM76 °FSunny.7 mph44%29.96 "Hg6 mi
8:00 AM74 °FSunny.7 mph45%29.95 "Hg8 mi
7:00 AM72 °FSunny.7 mph45%29.96 "Hg14 mi
6:00 AM69 °FSunny.6 mph49%29.96 "Hg25 mi
Weather by CustomWeather, © 2015

See weather overviewHow to use our weather pages